Regional Weather Roundup
Issued by NWS

Home | Current Version | Previous Version | Graphics & Text | Print | Product List | Glossary On
Versions: 1 2 3 4 5 6 7 8 9 10 11 12 13 14 15 16 17 18 19 20 21 22 23 24 25 26 27 28 29 30 31 32 33 34 35 36 37 38 39 40 41 42 43 44 45 46 47 48 49 50
106
ASUS45 KCYS 212310
RWRWY

WYOMING REGIONAL WEATHER ROUNDUP
NATIONAL WEATHER SERVICE CHEYENNE WY
500 PM MDT FRI JUL 21 2017

NOTE:  "FAIR" INDICATES FEW OR NO CLOUDS BELOW 12,000 FEET
WITH NO SIGNIFICANT WEATHER AND/OR OBSTRUCTIONS TO VISIBILITY.

WYZ001-220000-
YELLOWSTONE NATIONAL PARK

CITY           SKY/WX    TMP DP  RH WIND       PRES   REMARKS
LK YELLOWSTONE   N/A     72  23  16 W9        30.32S
W YELLOWSTONE  NOT AVBL

$$
WYZ002>013-054>058-071-098>099-220000-
NORTHERN WYOMING

CITY           SKY/WX    TMP DP  RH WIND       PRES   REMARKS
JACKSON        SUNNY     81  28  15 SW7       30.21F
CODY           FAIR      85  41  21 NE9       30.05F
GREYBULL       FAIR      93  32  11 E6        29.95F
WORLAND        FAIR      91  38  15 VRB3      29.97F
SHERIDAN       FAIR      89  34  14 MISG      30.00F
BUFFALO        FAIR      86  36  16 N10       30.08F
GILLETTE       FAIR      90  34  13 VRB7      30.01F
HULETT         FAIR      88  32  13 N8        30.03S
NEWCASTLE      FAIR      88  34  14 NW13G20   30.01F

$$
WYZ014>020-022>026-101>103-220000-
CENTRAL WYOMING

CITY           SKY/WX    TMP DP  RH WIND       PRES   REMARKS
BIG PINEY      FAIR      83  33  16 NW12      30.24S
PINEDALE       FAIR      81  30  16 NW15G28   30.26S
DUBOIS         FAIR      79  23  12 N23G32    30.23S
LANDER         FAIR      91  32  12 W16       30.06F
RIVERTON       FAIR      88  37  16 NW8       30.07F
CASPER         FAIR      90  46  21 NE7       30.05F
DOUGLAS        FAIR      88  45  22 NW5       30.05F

$$
WYZ021-027>030-104>119-220000-
SOUTHERN WYOMING

CITY           SKY/WX    TMP DP  RH WIND       PRES   REMARKS
EVANSTON       FAIR      84  44  24 NW8       30.24S
KEMMERER         N/A     82  30  15 N13       30.26F
FORT BRIDGER   FAIR      80  50  35 S16       30.26F
ROCK SPRINGS   FAIR      81  49  32 S12       30.21F
RAWLINS        FAIR      73  49  42 W12       30.21R
SARATOGA       FAIR      77  41  27 S17G26    30.22S
LARAMIE        FAIR      69  50  50 S18G28    30.29R
CHEYENNE       LGT RAIN  73  51  46 W20G29    30.19R
TORRINGTON     FAIR      94  36  13 NE5       29.97F
PINE BLUFFS    FAIR      86  41  20 NE9       30.08R

$$




USA.gov is the U.S. government's official web portal to all federal, state and local government web resources and services.